This demonstration page uses our WeatherBlox Daily Observations layout. Learn more.

39.51506, -84.39828

Hourly Observations for November 30, 2018

Temp ( °F °C ) Dew Point ( °F °C ) Humidity (%) Winds ( mph kmh ) Pressure ( in mb ) Visibility ( mi km ) Precip ( " mm )
12:15 am 00:15 Cloudy with Mist and Fog 36 2.1 35 1.8 98 98 Calm 29.97 1015 2.5 4.02335 0 0
12:35 am 00:35 Cloudy with Mist and Fog 36 2.2 35 1.8 97 97 Calm 29.97 1015 2.5 4.02335 0 0
12:55 am 00:55 Cloudy with Mist and Fog 36 2 35 1.7 98 98 NNE 3 6 29.94 1014 2.5 4.02335 0 0
1:15 am 01:15 Cloudy with Mist and Fog 35 1.5 34 1.2 98 98 NE 3 6 29.94 1014 2 3.21868 0 0
1:35 am 01:35 Cloudy with Mist and Fog 36 2.2 35 1.9 98 98 NNE 6 9 29.91 1013 2 3.21868 0 0
1:55 am 01:55 Cloudy with Mist and Fog 36 2.4 36 2.1 98 98 Calm 29.94 1014 2.5 4.02335 0 0
2:15 am 02:15 Cloudy with Mist and Fog 37 2.5 36 2.1 97 97 Calm 29.94 1014 2.5 4.02335 0 0
2:35 am 02:35 Cloudy with Mist and Fog 37 2.7 36 2.2 97 97 Calm 29.91 1013 3 4.82802 0 0
2:55 am 02:55 Cloudy with Mist and Fog 37 2.8 36 2.4 97 97 Calm 29.91 1013 3 4.82802 0 0
3:15 am 03:15 Cloudy with Mist and Fog 37 2.9 36 2.4 97 97 Calm 29.91 1013 3 4.82802 0 0
3:35 am 03:35 Cloudy with Light Rain 37 3 37 2.6 97 97 Calm 29.91 1013 2.5 4.02335 0 0
3:55 am 03:55 Cloudy with Mist and Fog 38 3.1 37 2.6 97 97 Calm 29.91 1013 3 4.82802 0 0
4:15 am 04:15 Cloudy with Light Drizzle 37 3 37 2.7 98 98 Calm 29.91 1013 2.5 4.02335 0 0
4:35 am 04:35 Cloudy with Mist and Fog 38 3.1 37 2.7 97 97 Calm 29.91 1013 3 4.82802 0 0
4:55 am 04:55 Cloudy with Mist and Fog 38 3.1 37 2.7 97 97 Calm 29.91 1013 3 4.82802 0 0
5:15 am 05:15 Cloudy with Mist and Fog 38 3.1 37 2.8 98 98 Calm 29.91 1013 1.75 2.816345 0 0
5:35 am 05:35 Cloudy with Mist and Fog 38 3.1 37 2.8 98 98 Calm 29.91 1013 1.75 2.816345 0 0
5:55 am 05:55 Cloudy with Mist and Fog 38 3.2 37 2.9 98 98 Calm 29.91 1013 2 3.21868 0 0
6:15 am 06:15 Cloudy with Mist and Fog 38 3.3 37 3 98 98 Calm 29.94 1014 2 3.21868 0 0
6:35 am 06:35 Cloudy with Mist and Fog 38 3.4 38 3.2 99 99 Calm 29.94 1014 2 3.21868 0 0
6:55 am 06:55 Cloudy with Mist and Fog 38 3.5 38 3.2 98 98 Calm 29.94 1014 2 3.21868 0 0
7:15 am 07:15 Cloudy with Mist and Fog 38 3.5 38 3.3 99 99 N 3 6 29.97 1015 1.5 2.41401 0 0
7:35 am 07:35 Cloudy with Mist and Fog 38 3.4 38 3.2 99 99 N 3 6 29.97 1015 1.25 2.011675 0 0
7:55 am 07:55 Cloudy with Fog 38 3.5 38 3.3 99 99 NNE 5 7 29.97 1015 0.5 0.80467 0 0
8:15 am 08:15 Cloudy with Fog 39 3.7 38 3.5 99 99 Calm 29.97 1015 0.5 0.80467 0 0
8:35 am 08:35 Cloudy with Fog 39 3.7 38 3.5 99 99 N 3 6 29.97 1015 0.5 0.80467 0 0
8:55 am 08:55 Cloudy with Mist and Fog 39 3.8 39 3.7 99 99 Calm 30 1016 0.75 1.207005 0 0
9:15 am 09:15 Cloudy with Mist and Fog 40 4.3 40 4.2 99 99 Calm 30 1016 0.75 1.207005 0 0
9:35 am 09:35 Cloudy with Mist and Fog 40 4.6 40 4.4 99 99 Calm 30 1016 0.75 1.207005 0 0
9:55 am 09:55 Cloudy with Mist and Fog 41 5 41 4.8 99 99 Calm 30 1016 1.25 2.011675 0 0
10:15 am 10:15 Cloudy with Mist and Fog 42 5.5 41 5.2 98 98 NNW 3 6 30 1016 1.5 2.41401 0 0
10:35 am 10:35 Cloudy with Mist and Fog 42 5.7 42 5.5 99 99 N 3 6 30.03 1017 1.25 2.011675 0 0
10:55 am 10:55 Cloudy with Mist and Fog 44 6.6 43 6.2 97 97 Calm 30.03 1017 4 6.43736 0 0
11:15 am 11:15 Cloudy 45 7.3 43 6.1 92 92 N 3 6 30 1016 7 11.26538 0 0
11:35 am 11:35 Cloudy with Mist and Fog 45 7.2 43 6 92 92 NE 5 7 30 1016 5 8.0467 0 0
11:55 am 11:55 Cloudy with Mist and Fog 46 7.5 43 6 90 90 ENE 5 7 30 1016 7 11.26538 0 0
12:15 pm 12:15 Cloudy with Mist and Fog 45 7.2 43 5.9 92 92 Calm 30 1016 5 8.0467 0 0
12:35 pm 12:35 Cloudy with Mist and Fog 46 7.6 43 6.2 91 91 ESE 3 6 30 1016 5 8.0467 0 0
12:55 pm 12:55 Cloudy with Mist and Fog 46 7.7 43 6.1 90 90 Calm 30 1016 7 11.26538 0 0
1:15 pm 13:15 Cloudy with Mist and Fog 47 8.5 44 6.4 87 87 N 3 6 30 1016 7 11.26538 0 0
1:35 pm 13:35 Sunny 47 8.3 43 6.2 87 87 Calm 30 1016 7 11.26538 0 0
1:55 pm 13:55 Partly Cloudy 48 8.9 44 6.4 85 85 Calm 30 1016 7 11.26538 0 0
2:15 pm 14:15 Mostly Cloudy 49 9.5 44 6.4 81 81 Calm 30 1016 10 16.0934 0 0
2:35 pm 14:35 Mostly Cloudy 49 9.6 43 6.3 80 80 NE 5 7 30 1016 10 16.0934 0 0
2:55 pm 14:55 Cloudy 49 9.3 43 6.3 82 82 N 7 11 30 1016 10 16.0934 0 0
3:15 pm 15:15 Cloudy 48 8.8 43 6.1 83 83 N 7 11 30 1016 10 16.0934 0 0
3:35 pm 15:35 Cloudy 47 8.1 43 5.9 86 86 N 10 17 30 1016 7 11.26538 0 0
3:55 pm 15:55 Cloudy 47 8.1 43 5.9 86 86 N 6 9 30.03 1017 7 11.26538 0 0
4:15 pm 16:15 Cloudy 46 7.9 42 5.7 86 86 N 7 11 30.03 1017 7 11.26538 0 0
4:35 pm 16:35 Cloudy with Mist and Fog 46 7.6 42 5.6 87 87 NNE 6 9 30.03 1017 7 11.26538 0 0
4:55 pm 16:55 Cloudy with Mist and Fog 45 7.4 42 5.5 88 88 NNE 7 11 30.06 1018 7 11.26538 0 0
5:15 pm 17:15 Cloudy with Mist and Fog 45 7.2 42 5.5 89 89 NNE 7 11 30.06 1018 5 8.0467 0 0
5:35 pm 17:35 Cloudy with Mist and Fog 45 7 42 5.4 90 90 NNE 7 11 30.06 1018 7 11.26538 0 0
5:55 pm 17:55 Cloudy with Mist and Fog 44 6.9 42 5.3 90 90 NNE 7 11 30.06 1018 7 11.26538 0 0
6:15 pm 18:15 Cloudy with Mist and Fog 44 6.8 42 5.3 90 90 NNE 7 11 30.06 1018 7 11.26538 0 0
6:35 pm 18:35 Cloudy with Mist and Fog 44 6.6 41 5.1 90 90 N 5 7 30.06 1018 7 11.26538 0 0
7:15 pm 19:15 Cloudy with Mist and Fog 44 6.5 41 5.1 91 91 NE 6 9 30.06 1018 5 8.0467 0 0
7:35 pm 19:35 Cloudy with Mist and Fog 44 6.5 41 5.1 91 91 NE 6 9 30.06 1018 5 8.0467 0 0
7:55 pm 19:55 Cloudy with Mist and Fog 44 6.4 41 5.2 92 92 NE 3 6 30.06 1018 4 6.43736 0 0
8:15 pm 20:15 Cloudy with Mist and Fog 44 6.7 42 5.7 93 93 E 5 7 30.06 1018 4 6.43736 0 0
8:35 pm 20:35 Cloudy with Mist and Fog 44 6.7 42 5.6 93 93 ENE 5 7 30.06 1018 5 8.0467 0 0
8:55 pm 20:55 Cloudy with Mist and Fog 44 6.8 42 5.5 92 92 E 6 9 30.06 1018 5 8.0467 0 0
9:10 pm 21:10 Cloudy with Mist and Fog 44 6.7 41 5.2 90 90 E 10 17 30.06 1018 7 11.26538 0 0
9:35 pm 21:35 Cloudy with Mist and Fog 44 6.5 41 5 90 90 E 6 9 30.06 1018 7 11.26538 0 0
9:55 pm 21:55 Cloudy 43 6.3 40 4.7 90 90 E 9 15 30.06 1018 7 11.26538 0 0
10:15 pm 22:15 Cloudy 43 6.3 40 4.7 90 90 E 9 15 30.06 1018 7 11.26538 0 0
10:35 pm 22:35 Cloudy 43 6 40 4.6 91 91 ENE 10 17 30.06 1018 10 16.0934 0 0
10:55 pm 22:55 Cloudy 42 5.8 40 4.5 91 91 E 13 20 30.06 1018 10 16.0934 0 0
11:15 pm 23:15 Cloudy 42 5.6 40 4.5 93 93 ENE 8 13 30.06 1018 10 16.0934 0 0
11:35 pm 23:35 Cloudy with Mist and Fog 42 5.5 40 4.6 94 94 ENE 10 17 30.06 1018 7 11.26538 0 0
11:55 pm 23:55 Cloudy with Mist and Fog 42 5.3 40 4.7 96 96 ENE 8 13 30.06 1018 4 6.43736 0 0

Powered by AerisWeather